LAN804 YMML-SCEL

Flight info

Callsign LAN804
Flight time N/A
Altitude 35000
Route SUNTI H169 IRSOM V33 TASUM DCT 48S154E/N0482F370 53S163E 56S169E DCT 60S80 DCT 63S168W 65S154W/N0489F390 65S131W 64S122W 62S112W 59S102W 56S095W/N0487F410 53S090W/N0479F400 47S082W 42S077W DCT PANEX DCT LODOS UQ808 EROLO EROLO7F
Aircraft B788/H-SDE1E2E3FGHIJ2J3J4J5M1RWXY/LB1D1

Departure

Time 2026-05-04 13:23
Airport Melbourne Airport (YMML)

Arrival

Time N/A
Airport Comodoro Arturo Merino Benítez International Airport (SCEL)
Time Latitude Longitude Altitude Speed Heading
2026-05-04 12:53 -37.66934 144.84589 447 ft 0 kts
2026-05-04 13:11 -37.66943 144.84589 447 ft 4 kts
2026-05-04 13:12 -37.66969 144.84582 447 ft 4 kts 22°
2026-05-04 13:12 -37.66992 144.84566 447 ft 4 kts 39°
2026-05-04 13:12 -37.67010 144.84543 447 ft 4 kts 53°
2026-05-04 13:12 -37.67025 144.84514 447 ft 4 kts 64°
2026-05-04 13:13 -37.67035 144.84483 447 ft 4 kts 71°
2026-05-04 13:13 -37.67043 144.84451 447 ft 4 kts 77°
2026-05-04 13:13 -37.67048 144.84417 447 ft 4 kts 81°
2026-05-04 13:13 -37.67052 144.84384 447 ft 4 kts 82°
2026-05-04 13:14 -37.67056 144.84350 447 ft 4 kts 77°
2026-05-04 13:14 -37.67060 144.84333 447 ft 0 kts 69°
2026-05-04 13:15 -37.67060 144.84334 447 ft 0 kts 69°
2026-05-04 13:16 -37.67059 144.84336 447 ft 1 kts 69°
2026-05-04 13:16 -37.67054 144.84356 447 ft 2 kts 77°
2026-05-04 13:16 -37.67054 144.84357 447 ft 0 kts 77°
2026-05-04 13:17 -37.67053 144.84365 447 ft 3 kts 81°
2026-05-04 13:17 -37.67057 144.84406 447 ft 7 kts 110°
2026-05-04 13:17 -37.67106 144.84451 447 ft 11 kts 168°
2026-05-04 13:18 -37.67186 144.84427 447 ft 14 kts 237°
2026-05-04 13:18 -37.67213 144.84307 447 ft 15 kts 233°
2026-05-04 13:18 -37.67313 144.84290 447 ft 17 kts 172°
2026-05-04 13:18 -37.67443 144.84315 447 ft 21 kts 172°
2026-05-04 13:19 -37.67588 144.84341 447 ft 21 kts 172°
2026-05-04 13:19 -37.67736 144.84369 447 ft 22 kts 171°
2026-05-04 13:19 -37.67885 144.84396 447 ft 22 kts 171°
2026-05-04 13:19 -37.68035 144.84424 447 ft 22 kts 171°
2026-05-04 13:20 -37.68187 144.84453 447 ft 22 kts 172°
2026-05-04 13:20 -37.68308 144.84475 447 ft 12 kts 174°
2026-05-04 13:20 -37.68385 144.84436 447 ft 12 kts 214°
2026-05-04 13:20 -37.68457 144.84374 447 ft 13 kts 215°
2026-05-04 13:21 -37.68525 144.84301 447 ft 13 kts 233°
2026-05-04 13:21 -37.68554 144.84197 447 ft 12 kts 260°
2026-05-04 13:21 -37.68538 144.84103 447 ft 10 kts 318°
2026-05-04 13:21 -37.68478 144.84079 447 ft 9 kts 352°
2026-05-04 13:22 -37.68390 144.84063 447 ft 21 kts 351°
2026-05-04 13:22 -37.68026 144.83995 447 ft 90 kts 352°
2026-05-04 13:22 -37.67182 144.83837 448 ft 153 kts 352°
2026-05-04 13:22 -37.66052 144.83638 937 ft 168 kts 350°
2026-05-04 13:23 -37.64857 144.83405 1652 ft 177 kts 349°
2026-05-04 13:23 -37.63651 144.83166 2580 ft 170 kts 347°
2026-05-04 13:23 -37.62470 144.82951 3128 ft 178 kts 345°
2026-05-04 13:23 -37.61196 144.82696 3423 ft 192 kts 344°
2026-05-04 13:24 -37.59814 144.82424 3726 ft 211 kts 346°
2026-05-04 13:24 -37.58273 144.82546 4028 ft 238 kts
2026-05-04 13:24 -37.56727 144.83499 4400 ft 255 kts 22°
2026-05-04 13:25 -37.55825 144.84123 4638 ft 259 kts 22°
2026-05-04 13:25 -37.55358 144.84444 4781 ft 261 kts 22°
2026-05-04 13:25 -37.53716 144.85535 5230 ft 273 kts 21°
2026-05-04 13:25 -37.51988 144.86641 5646 ft 286 kts 20°
2026-05-04 13:26 -37.50165 144.87759 6213 ft 292 kts 20°
2026-05-04 13:26 -37.48353 144.88909 6985 ft 293 kts 24°
2026-05-04 13:26 -37.46837 144.90691 7609 ft 307 kts 51°
2026-05-04 13:26 -37.46080 144.93216 8292 ft 313 kts 80°
2026-05-04 13:27 -37.46266 144.95932 8937 ft 314 kts 108°
2026-05-04 13:27 -37.47355 144.98269 9540 ft 310 kts 136°
2026-05-04 13:27 -37.49110 144.99737 10124 ft 301 kts 163°
2026-05-04 13:27 -37.51141 145.00377 10568 ft 305 kts 174°
2026-05-04 13:28 -37.53280 145.00848 10848 ft 320 kts 176°
2026-05-04 13:28 -37.55532 145.01312 11102 ft 336 kts 176°
2026-05-04 13:28 -37.57894 145.01796 11361 ft 352 kts 175°
2026-05-04 13:28 -37.60350 145.02304 11749 ft 363 kts 175°
2026-05-04 13:29 -37.62866 145.02828 12253 ft 370 kts 175°
2026-05-04 13:29 -37.65428 145.03363 12818 ft 375 kts 175°
2026-05-04 13:29 -37.68019 145.03905 13396 ft 379 kts 175°
2026-05-04 13:29 -37.70634 145.04451 13972 ft 383 kts 175°
2026-05-04 13:30 -37.73265 145.05001 14552 ft 386 kts 175°
2026-05-04 13:30 -37.75925 145.05557 15120 ft 388 kts 175°
2026-05-04 13:30 -37.78603 145.06117 15683 ft 391 kts 175°
2026-05-04 13:30 -37.81294 145.06680 16219 ft 394 kts 175°
2026-05-04 13:31 -37.84012 145.07249 16725 ft 397 kts 174°
2026-05-04 13:31 -37.86746 145.07821 17203 ft 401 kts 174°
2026-05-04 13:31 -37.89513 145.08400 17675 ft 404 kts 174°
2026-05-04 13:31 -37.92299 145.08984 18164 ft 407 kts 174°
2026-05-04 13:32 -37.95099 145.09572 18663 ft 409 kts 174°
2026-05-04 13:32 -37.97910 145.10163 19150 ft 411 kts 174°
2026-05-04 13:32 -38.00738 145.10757 19619 ft 413 kts 174°
2026-05-04 13:32 -38.03586 145.11354 20046 ft 416 kts 174°
2026-05-04 13:33 -38.06451 145.11957 20462 ft 419 kts 174°
2026-05-04 13:33 -38.09336 145.12565 20881 ft 421 kts 174°
2026-05-04 13:33 -38.12235 145.13176 21309 ft 423 kts 174°
2026-05-04 13:33 -38.15147 145.13791 21730 ft 425 kts 174°
2026-05-04 13:34 -38.18070 145.14408 22140 ft 427 kts 174°
2026-05-04 13:34 -38.21015 145.15031 22520 ft 430 kts 174°
2026-05-04 13:34 -38.23933 145.15648 22880 ft 432 kts 174°
2026-05-04 13:34 -38.26951 145.16286 23258 ft 435 kts 174°
2026-05-04 13:35 -38.29892 145.16909 23621 ft 437 kts 174°
2026-05-04 13:35 -38.35920 145.18188 24335 ft 441 kts 174°
2026-05-04 13:35 -38.38956 145.18832 24632 ft 444 kts 174°
2026-05-04 13:36 -38.42016 145.19482 24944 ft 447 kts 174°
2026-05-04 13:36 -38.45095 145.20136 25263 ft 450 kts 174°
2026-05-04 13:36 -38.48187 145.20795 25585 ft 452 kts 174°
2026-05-04 13:36 -38.51283 145.21606 25908 ft 457 kts 168°
2026-05-04 13:37 -38.54327 145.22803 26208 ft 461 kts 165°
2026-05-04 13:37 -38.57377 145.24148 26472 ft 465 kts 163°
2026-05-04 13:37 -38.60437 145.25529 26752 ft 467 kts 163°
2026-05-04 13:37 -38.62470 145.26445 26932 ft 469 kts 163°
2026-05-04 13:38 -38.66607 145.28294 27328 ft 472 kts 164°
2026-05-04 13:38 -38.69716 145.29674 27629 ft 474 kts 164°
2026-05-04 13:38 -38.72843 145.31058 27916 ft 476 kts 164°
2026-05-04 13:38 -38.75981 145.32446 28176 ft 479 kts 164°
2026-05-04 13:39 -38.79152 145.33849 28425 ft 482 kts 164°
2026-05-04 13:39 -38.82329 145.35255 28711 ft 484 kts 164°
2026-05-04 13:39 -38.85521 145.36669 28987 ft 487 kts 164°
2026-05-04 13:39 -38.88734 145.38095 29255 ft 489 kts 164°
2026-05-04 13:40 -38.91953 145.39524 29540 ft 491 kts 163°
2026-05-04 13:40 -38.95190 145.40962 29790 ft 494 kts 163°
2026-05-04 13:40 -38.98449 145.42412 30043 ft 496 kts 163°
2026-05-04 13:40 -39.01720 145.43869 30286 ft 499 kts 163°
2026-05-04 13:41 -39.05010 145.45336 30539 ft 501 kts 163°
2026-05-04 13:41 -39.08308 145.46807 30836 ft 503 kts 163°
2026-05-04 13:41 -39.11571 145.48265 31155 ft 503 kts 163°
2026-05-04 13:42 -39.18188 145.51226 31820 ft 504 kts 163°
2026-05-04 13:42 -39.21502 145.52711 32130 ft 505 kts 163°
2026-05-04 13:42 -39.24822 145.54199 32452 ft 505 kts 163°
2026-05-04 13:42 -39.28141 145.55690 32768 ft 505 kts 163°
2026-05-04 13:43 -39.31465 145.57183 33078 ft 506 kts 163°
2026-05-04 13:43 -39.34789 145.58678 33386 ft 506 kts 163°
2026-05-04 13:43 -39.38120 145.60178 33683 ft 507 kts 163°
2026-05-04 13:43 -39.41449 145.61678 33989 ft 507 kts 163°
2026-05-04 13:44 -39.44780 145.63181 34294 ft 507 kts 163°
2026-05-04 13:44 -39.48114 145.64687 34595 ft 507 kts 163°
2026-05-04 13:44 -39.51448 145.66194 34826 ft 509 kts 163°
2026-05-04 13:44 -39.54799 145.67709 34932 ft 511 kts 163°
2026-05-04 13:45 -39.61579 145.70780 34953 ft 520 kts 163°
2026-05-04 13:45 -39.68410 145.73884 34940 ft 519 kts 163°
2026-05-04 13:46 -39.75220 145.76985 34935 ft 519 kts 163°
2026-05-04 13:46 -39.82041 145.80096 34940 ft 520 kts 163°
2026-05-04 13:47 -39.88867 145.83216 34924 ft 520 kts 163°
2026-05-04 13:47 -39.95651 145.86323 34923 ft 520 kts 163°
2026-05-04 13:48 -40.02478 145.89466 34922 ft 520 kts 163°
2026-05-04 13:48 -40.09304 145.92625 34908 ft 520 kts 162°
2026-05-04 13:49 -40.16124 145.95790 34910 ft 520 kts 162°
2026-05-04 13:49 -40.22944 145.98962 34905 ft 520 kts 162°
2026-05-04 13:50 -40.29759 146.02137 34897 ft 521 kts 162°
2026-05-04 13:50 -40.33184 146.03736 35060 ft 524 kts 162°
2026-05-04 13:50 -40.36624 146.05343 35341 ft 525 kts 162°
2026-05-04 13:51 -40.40066 146.06954 35661 ft 525 kts 162°
2026-05-04 13:51 -40.43505 146.08565 35968 ft 525 kts 162°
2026-05-04 13:51 -40.46944 146.10178 36235 ft 525 kts 162°
2026-05-04 13:51 -40.50385 146.11793 36522 ft 525 kts 162°
2026-05-04 13:52 -40.57264 146.15027 37069 ft 525 kts 162°
2026-05-04 13:52 -40.60706 146.16648 37307 ft 525 kts 162°
2026-05-04 13:52 -40.64146 146.18269 37546 ft 525 kts 162°
2026-05-04 13:53 -40.67585 146.19892 37791 ft 525 kts 162°
2026-05-04 13:53 -40.71025 146.21517 38001 ft 525 kts 162°
2026-05-04 13:53 -40.74466 146.23144 38214 ft 525 kts 162°
2026-05-04 13:54 -40.81295 146.26381 38640 ft 525 kts 162°
2026-05-04 13:54 -40.84728 146.28010 38811 ft 525 kts 162°
2026-05-04 13:55 -40.95059 146.32924 38857 ft 525 kts 162°
2026-05-04 13:55 -41.05354 146.37837 38863 ft 525 kts 162°
2026-05-04 13:56 -41.12224 146.41124 38850 ft 525 kts 162°
2026-05-04 13:57 -41.21204 146.46094 38860 ft 526 kts 157°
2026-05-04 13:58 -41.34455 146.54402 38855 ft 526 kts 156°
2026-05-04 13:58 -41.44376 146.60694 38845 ft 526 kts 156°
2026-05-04 13:59 -41.50985 146.64891 38850 ft 526 kts 156°
2026-05-04 14:00 -41.60908 146.71211 38843 ft 527 kts 156°
2026-05-04 14:00 -41.70816 146.77576 38849 ft 527 kts 155°
2026-05-04 14:01 -41.77431 146.81852 38848 ft 529 kts 155°
2026-05-04 14:02 -41.87318 146.88266 38844 ft 529 kts 155°
2026-05-04 14:02 -41.93945 146.92577 38847 ft 530 kts 155°
2026-05-04 14:03 -42.00583 146.96905 38835 ft 530 kts 155°
2026-05-04 14:03 -42.07217 147.01240 38843 ft 529 kts 155°
2026-05-04 14:04 -42.17161 147.07756 38833 ft 531 kts 155°
2026-05-04 14:04 -42.23803 147.12123 38830 ft 531 kts 155°
2026-05-04 14:05 -42.33774 147.18699 38827 ft 532 kts 155°
2026-05-04 14:06 -42.40432 147.23102 38820 ft 533 kts 155°
2026-05-04 14:06 -42.47087 147.27514 38828 ft 532 kts 155°
2026-05-04 14:07 -42.53743 147.31936 38818 ft 534 kts 155°
2026-05-04 14:07 -42.60407 147.36375 38816 ft 534 kts 155°
2026-05-04 14:08 -42.67069 147.40823 38825 ft 533 kts 154°
2026-05-04 14:08 -42.73729 147.45280 38812 ft 534 kts 154°
2026-05-04 14:09 -42.83700 147.52020 38814 ft 534 kts 150°
2026-05-04 14:10 -42.92572 147.61144 38819 ft 534 kts 139°
2026-05-04 14:10 -42.98261 147.67664 38811 ft 533 kts 140°
2026-05-04 14:11 -43.03981 147.74124 38823 ft 533 kts 140°
2026-05-04 14:11 -43.12534 147.83716 38811 ft 532 kts 140°
2026-05-04 14:12 -43.18257 147.90148 38824 ft 532 kts 140°
2026-05-04 14:13 -43.26832 147.99821 38813 ft 532 kts 140°
2026-05-04 14:13 -43.32567 148.06311 38825 ft 537 kts 140°
2026-05-04 14:14 -43.38320 148.12839 38822 ft 536 kts 140°
2026-05-04 14:14 -43.46916 148.22623 38824 ft 534 kts 139°
2026-05-04 14:15 -43.58370 148.35719 38817 ft 535 kts 139°
2026-05-04 14:16 -43.66941 148.45563 38833 ft 535 kts 139°
2026-05-04 14:17 -43.75506 148.55437 38822 ft 535 kts 139°
2026-05-04 14:18 -43.84075 148.65354 38832 ft 536 kts 139°
2026-05-04 14:19 -43.95502 148.78638 38839 ft 537 kts 139°
2026-05-04 14:19 -44.01220 148.85311 38831 ft 537 kts 139°
2026-05-04 14:20 -44.06925 148.91986 38830 ft 535 kts 138°
2026-05-04 14:20 -44.12619 148.98667 38844 ft 537 kts 138°
2026-05-04 14:21 -44.21182 149.08747 38834 ft 537 kts 138°
2026-05-04 14:21 -44.26853 149.15443 38847 ft 538 kts 138°
2026-05-04 14:22 -44.32570 149.22213 38841 ft 539 kts 138°
2026-05-04 14:22 -44.38284 149.28995 38833 ft 539 kts 138°
2026-05-04 14:23 -44.46849 149.39197 38847 ft 540 kts 137°
2026-05-04 14:24 -44.52565 149.46029 38838 ft 540 kts 137°
2026-05-04 14:24 -44.58270 149.52864 38851 ft 539 kts 137°
2026-05-04 14:25 -44.63966 149.59709 38851 ft 539 kts 137°
2026-05-04 14:25 -44.72525 149.70027 38854 ft 540 kts 137°
2026-05-04 14:26 -44.78223 149.76920 38858 ft 540 kts 137°
2026-05-04 14:26 -44.83915 149.83823 38849 ft 540 kts 137°
2026-05-04 14:27 -44.89561 149.90690 38863 ft 540 kts 137°
2026-05-04 14:27 -44.95244 149.97620 38861 ft 540 kts 137°
2026-05-04 14:28 -45.00929 150.04571 38857 ft 542 kts 137°
2026-05-04 14:28 -45.06632 150.11565 38872 ft 543 kts 137°
2026-05-04 14:29 -45.18016 150.25580 38872 ft 542 kts 136°
2026-05-04 14:30 -45.23701 150.32608 38877 ft 542 kts 136°
2026-05-04 14:31 -45.32216 150.43171 38875 ft 542 kts 136°
2026-05-04 14:32 -45.43552 150.57303 38874 ft 542 kts 136°
2026-05-04 14:32 -45.49211 150.64386 38886 ft 541 kts 136°
2026-05-04 14:33 -45.54834 150.71445 38891 ft 542 kts 136°
2026-05-04 14:33 -45.60486 150.78559 38881 ft 542 kts 136°
2026-05-04 14:34 -45.66138 150.85694 38897 ft 542 kts 136°
2026-05-04 14:34 -45.71789 150.92847 38894 ft 542 kts 136°
2026-05-04 14:35 -45.77438 151.00018 38895 ft 543 kts 136°
2026-05-04 14:35 -45.83089 151.07211 38907 ft 543 kts 136°
2026-05-04 14:36 -45.88734 151.14417 38896 ft 543 kts 136°
2026-05-04 14:36 -45.94380 151.21646 38908 ft 544 kts 136°
2026-05-04 14:37 -46.00024 151.28892 38901 ft 544 kts 136°
2026-05-04 14:37 -46.05657 151.36145 38905 ft 543 kts 136°
2026-05-04 14:38 -46.11287 151.43414 38917 ft 544 kts 136°
2026-05-04 14:38 -46.16921 151.50709 38907 ft 545 kts 136°
2026-05-04 14:39 -46.22551 151.58021 38919 ft 544 kts 136°
2026-05-04 14:39 -46.28177 151.65348 38923 ft 544 kts 136°
2026-05-04 14:40 -46.36602 151.76361 38906 ft 544 kts 135°
2026-05-04 14:40 -46.42213 151.83721 38916 ft 544 kts 135°
2026-05-04 14:41 -46.47821 151.91101 38924 ft 544 kts 135°
2026-05-04 14:42 -46.59021 152.05901 38928 ft 545 kts 135°
2026-05-04 14:42 -46.64621 152.13332 38930 ft 545 kts 135°
2026-05-04 14:43 -46.70216 152.20779 38924 ft 544 kts 135°
2026-05-04 14:43 -46.74857 152.26975 38937 ft 544 kts 135°
2026-05-04 14:44 -46.81342 152.35656 38936 ft 545 kts 135°
2026-05-04 14:44 -46.86924 152.43152 38970 ft 545 kts 135°
2026-05-04 14:45 -46.91596 152.49444 38999 ft 546 kts 135°
2026-05-04 14:45 -46.97179 152.56981 39020 ft 545 kts 135°
2026-05-04 14:46 -47.02711 152.64472 39034 ft 545 kts 135°
2026-05-04 14:46 -47.08273 152.72026 39042 ft 545 kts 135°
2026-05-04 14:47 -47.13830 152.79597 39039 ft 545 kts 135°
2026-05-04 14:47 -47.19379 152.87178 39052 ft 544 kts 135°
2026-05-04 14:48 -47.24924 152.94778 39057 ft 546 kts 135°
2026-05-04 14:48 -47.30475 153.02409 39023 ft 546 kts 135°
2026-05-04 14:49 -47.36016 153.10049 38984 ft 545 kts 135°
2026-05-04 14:49 -47.41545 153.17695 38966 ft 545 kts 135°
2026-05-04 14:50 -47.47080 153.25372 38965 ft 546 kts 135°
2026-05-04 14:50 -47.52579 153.33023 38978 ft 546 kts 134°
2026-05-04 14:51 -47.58110 153.40741 38971 ft 546 kts 134°
2026-05-04 14:51 -47.63635 153.48475 38980 ft 547 kts 134°
2026-05-04 14:52 -47.69159 153.56232 38987 ft 547 kts 134°
2026-05-04 14:52 -47.74671 153.63995 38980 ft 547 kts 134°
2026-05-04 14:53 -47.80189 153.71790 38994 ft 548 kts 134°
2026-05-04 14:53 -47.85710 153.79614 38996 ft 548 kts 134°
2026-05-04 14:54 -47.91222 153.87448 38991 ft 547 kts 134°
2026-05-04 14:54 -47.96717 153.95298 39007 ft 547 kts 134°
2026-05-04 14:55 -48.02131 154.03282 39005 ft 547 kts 133°
2026-05-04 14:55 -48.07447 154.11303 39005 ft 546 kts 132°
2026-05-04 14:56 -48.12769 154.19428 39019 ft 547 kts 132°
2026-05-04 14:56 -48.18080 154.27573 39016 ft 547 kts 132°